Weather History for KBKD - December, 2012

Change the Weather History Date:

Sunday, December 16, 2012

  Actual Average (KABI) Record (KABI)
Temperature  
Mean Temperature 61 °F 45 °F  
Max Temperature 71 °F 56 °F 83 °F (1908)
Min Temperature 51 °F 33 °F 9 °F (1989)
Degree Days  
Heating Degree Days 4 20  
Month to date heating degree days 299  
Since 1 July heating degree days 732  
Cooling Degree Days 0 0  
Month to date cooling degree days 0  
Year to date cooling degree days 2408  
Growing Degree Days 11 (Base 50)    
Moisture  
Dew Point 34 °F    
Average Humidity 39    
Maximum Humidity 54    
Minimum Humidity 23    
Precipitation  
Precipitation 0.00 in 0.04 in 0.98 in (2001)
Month to date precipitation 0.64  
Year to date precipitation 24.23  
Sea Level Pressure  
Sea Level Pressure 29.80 in    
Wind  
Wind Speed 9 mph (WSW)    
Max Wind Speed 20 mph    
Max Gust Speed 25 mph    
Visibility 10 miles    
Events      
T = Trace of Precipitation, MM = Missing Value Source: NWS Daily Summary

Daily Weather History Graph

Daily Weather History Graph

Search for Another Location

Airport or City:

Trip Planner

Search our weather history database for the weather conditions in past years. The results will help you decide how hot, cold, wet, or windy it might be!

Date:

Astronomy

Dec. 16, 2012 Rise Set
Actual Time 7:31 AM CST 5:31 PM CST
Civil Twilight 7:04 AM CST 5:58 PM CST
Nautical Twilight 6:33 AM CST 6:29 PM CST
Astronomical Twilight 6:03 AM CST 6:59 PM CST
Moon 10:15 AM CST (12/16) 9:36 PM CST (12/16)
Length of Visible Light 10h 54m
Length of Day
10h 00m
Waxing Crescent, 16% of the Moon is Illuminated
Dec 16
Waxing Crescent
Dec 19
First Quarter
Dec 28
Full
Jan 4
Last Quarter
Jan 11
New

Hourly Weather History & Observations

Time (CST) Temp. Dew Point Humidity Pressure Visibility Wind Dir Wind Speed Gust Speed Precip Events Conditions
12:15 AM 53.6 °F 33.8 °F 47% 29.84 in 10.0 mi SSW 9.2 mph - N/A   Clear
12:55 AM 55.4 °F 33.8 °F 44% 29.84 in 10.0 mi SW 6.9 mph - N/A   Clear
1:15 AM 55.4 °F 33.8 °F 44% 29.83 in 10.0 mi SW 6.9 mph - N/A   Clear
1:35 AM 53.6 °F 33.8 °F 47% 29.82 in 10.0 mi WSW 4.6 mph - N/A   Clear
1:55 AM 53.6 °F 33.8 °F 47% 29.81 in 10.0 mi SW 6.9 mph - N/A   Clear
2:15 AM 55.4 °F 33.8 °F 44% 29.82 in 10.0 mi SW 9.2 mph - N/A   Clear
2:55 AM 55.4 °F 33.8 °F 44% 29.84 in 10.0 mi SW 4.6 mph - N/A   Clear
3:35 AM 55.4 °F 33.8 °F 44% 29.85 in 10.0 mi Calm Calm - N/A   Clear
3:55 AM 55.4 °F 33.8 °F 44% 29.84 in 10.0 mi SSW 4.6 mph - N/A   Clear
4:15 AM 53.6 °F 35.6 °F 51% 29.83 in 10.0 mi Calm Calm - N/A   Clear
4:35 AM 53.6 °F 35.6 °F 51% 29.84 in 10.0 mi SSW 3.5 mph - N/A   Clear
4:55 AM 53.6 °F 35.6 °F 51% 29.83 in 10.0 mi SSW 5.8 mph - N/A   Clear
5:15 AM 53.6 °F 35.6 °F 51% 29.83 in 10.0 mi SSW 6.9 mph - N/A   Clear
5:35 AM 53.6 °F 33.8 °F 47% 29.83 in 10.0 mi South 4.6 mph - N/A   Clear
5:55 AM 55.4 °F 35.6 °F 47% 29.83 in 10.0 mi SSW 8.1 mph - N/A   Clear
6:15 AM 55.4 °F 33.8 °F 44% 29.82 in 10.0 mi SSW 9.2 mph - N/A   Clear
6:35 AM 55.4 °F 33.8 °F 44% 29.83 in 10.0 mi SSW 9.2 mph - N/A   Clear
7:15 AM 55.4 °F 33.8 °F 44% 29.84 in 10.0 mi SSW 9.2 mph - N/A   Clear
7:55 AM 53.6 °F 33.8 °F 47% 29.85 in 10.0 mi North - - N/A   Clear
8:15 AM 51.8 °F 35.6 °F 54% 29.85 in 10.0 mi SW 6.9 mph - N/A   Clear
8:35 AM 53.6 °F 35.6 °F 51% 29.85 in 10.0 mi SW 4.6 mph - N/A   Clear
8:55 AM 53.6 °F 35.6 °F 51% 29.84 in 10.0 mi SW 6.9 mph - N/A   Clear
9:15 AM 55.4 °F 35.6 °F 47% 29.86 in 10.0 mi West 6.9 mph - N/A   Clear
9:35 AM 55.4 °F 35.6 °F 47% 29.85 in 10.0 mi West 8.1 mph - N/A   Clear
9:55 AM 59.0 °F 35.6 °F 42% 29.86 in 10.0 mi West 8.1 mph - N/A   Clear
10:15 AM 59.0 °F 35.6 °F 42% 29.86 in 10.0 mi West 5.8 mph - N/A   Clear
10:35 AM 60.8 °F 35.6 °F 39% 29.85 in 10.0 mi West 11.5 mph 16.1 mph N/A   Clear
10:55 AM 62.6 °F 33.8 °F 34% 29.84 in 10.0 mi West 13.8 mph 20.7 mph N/A   Clear
11:15 AM 64.4 °F 35.6 °F 34% 29.84 in 10.0 mi West 12.7 mph - N/A   Clear
11:35 AM 66.2 °F 33.8 °F 30% 29.82 in 10.0 mi West 16.1 mph 21.9 mph N/A   Clear
11:55 AM 66.2 °F 33.8 °F 30% 29.81 in 10.0 mi WNW 17.3 mph 25.3 mph N/A   Clear
12:15 PM 68.0 °F 33.8 °F 28% 29.80 in 10.0 mi West 17.3 mph 21.9 mph N/A   Clear
12:35 PM 68.0 °F 32.0 °F 26% 29.79 in 10.0 mi West 16.1 mph - N/A   Clear
12:55 PM 68.0 °F 32.0 °F 26% 29.77 in 10.0 mi West 17.3 mph 25.3 mph N/A   Clear
1:15 PM 69.8 °F 32.0 °F 25% 29.77 in 10.0 mi West 19.6 mph 25.3 mph N/A   Clear
1:35 PM 69.8 °F 32.0 °F 25% 29.76 in 10.0 mi West 17.3 mph 25.3 mph N/A   Clear
1:55 PM 69.8 °F 32.0 °F 25% 29.75 in 10.0 mi West 11.5 mph 25.3 mph N/A   Clear
2:15 PM 69.8 °F 32.0 °F 25% 29.74 in 10.0 mi West 17.3 mph 25.3 mph N/A   Clear
2:35 PM 69.8 °F 32.0 °F 25% 29.74 in 10.0 mi WNW 16.1 mph 20.7 mph N/A   Clear
2:55 PM 71.6 °F 32.0 °F 23% 29.74 in 10.0 mi West 16.1 mph 21.9 mph N/A   Clear
3:15 PM 69.8 °F 32.0 °F 25% 29.74 in 10.0 mi West 16.1 mph 21.9 mph N/A   Clear
3:35 PM 69.8 °F 32.0 °F 25% 29.73 in 10.0 mi West 15.0 mph 18.4 mph N/A   Clear
3:55 PM 69.8 °F 32.0 °F 25% 29.73 in 10.0 mi West 16.1 mph - N/A   Clear
4:15 PM 69.8 °F 32.0 °F 25% 29.73 in 10.0 mi WNW 11.5 mph - N/A   Clear
4:35 PM 68.0 °F 32.0 °F 26% 29.73 in 10.0 mi West 16.1 mph 21.9 mph N/A   Clear
4:55 PM 68.0 °F 32.0 °F 26% 29.73 in 10.0 mi West 10.4 mph 16.1 mph N/A   Clear
5:15 PM 66.2 °F 32.0 °F 28% 29.73 in 10.0 mi West 9.2 mph - N/A   Clear
5:35 PM 62.6 °F 32.0 °F 32% 29.73 in 10.0 mi WSW 6.9 mph - N/A   Clear
5:55 PM 60.8 °F 32.0 °F 34% 29.74 in 10.0 mi WSW 9.2 mph - N/A   Clear
6:15 PM 60.8 °F 32.0 °F 34% 29.74 in 10.0 mi SW 8.1 mph - N/A   Clear
6:35 PM 59.0 °F 32.0 °F 36% 29.76 in 10.0 mi SW 8.1 mph - N/A   Clear
6:55 PM 59.0 °F 32.0 °F 36% 29.76 in 10.0 mi SW 9.2 mph - N/A   Clear
7:15 PM 59.0 °F 32.0 °F 36% 29.76 in 10.0 mi SW 9.2 mph - N/A   Clear
7:35 PM 60.8 °F 32.0 °F 34% 29.76 in 10.0 mi SSW 8.1 mph - N/A   Clear
7:55 PM 59.0 °F 32.0 °F 36% 29.77 in 10.0 mi SW 6.9 mph - N/A   Clear
8:15 PM 59.0 °F 33.8 °F 39% 29.77 in 10.0 mi SW 5.8 mph - N/A   Clear
8:35 PM 57.2 °F 33.8 °F 41% 29.78 in 10.0 mi SW 6.9 mph - N/A   Scattered Clouds
8:55 PM 55.4 °F 33.8 °F 44% 29.78 in 10.0 mi SW 6.9 mph - N/A   Scattered Clouds
9:15 PM 55.4 °F 33.8 °F 44% 29.78 in 10.0 mi SW 6.9 mph - N/A   Clear
9:35 PM 53.6 °F 33.8 °F 47% 29.79 in 10.0 mi SW 6.9 mph - N/A   Clear
9:55 PM 53.6 °F 33.8 °F 47% 29.78 in 10.0 mi SW 6.9 mph - N/A   Clear
10:15 PM 53.6 °F 33.8 °F 47% 29.79 in 10.0 mi WSW 5.8 mph - N/A   Clear
10:35 PM 53.6 °F 33.8 °F 47% 29.79 in 10.0 mi WSW 6.9 mph - N/A   Clear
10:55 PM 51.8 °F 33.8 °F 50% 29.81 in 10.0 mi WSW 6.9 mph - N/A   Clear
11:15 PM 51.8 °F 33.8 °F 50% 29.82 in 10.0 mi West 8.1 mph - N/A   Clear
11:35 PM 51.8 °F 32.0 °F 47% 29.83 in 10.0 mi West 10.4 mph - N/A   Clear
11:55 PM 53.6 °F 32.0 °F 44% 29.84 in 10.0 mi West 13.8 mph - N/A   Clear